This is the latest recevied weather packets stored in our database for station/object OE-11399. If no packets are shown the sender has not sent any weather packets the latest 10 day(s).
| Time | Temp. | Humidity | Pressure | Rain* | Wind** | Luminosity | Snow |
|---|---|---|---|---|---|---|---|
| 1787625350 | 12.78° C | 93% | 849.9 hPa | 0 mm | - | 0 W/m² | - |
| 1787624724 | 12.78° C | 90% | 850 hPa | 0 mm | - | 0 W/m² | - |
| 1787623897 | 12.78° C | 90% | 849.9 hPa | 0 mm | - | 0 W/m² | - |
| 1787623524 | 13.33° C | 89% | 850.2 hPa | 0 mm | - | 0 W/m² | - |
| 1787622925 | 13.33° C | 90% | 850.4 hPa | 0 mm | - | 0 W/m² | - |
| 1787622098 | 13.33° C | 90% | 850.5 hPa | 0 mm | - | 0 W/m² | - |
| 1787621725 | 13.33° C | 91% | 850.5 hPa | 0 mm | - | 0 W/m² | - |
| 1787621125 | 13.33° C | 91% | 850.9 hPa | 0 mm | - | 0 W/m² | - |
| 1787620297 | 13.33° C | 90% | 850.8 hPa | 0 mm | - | 0 W/m² | - |
| 1787619925 | 13.33° C | 90% | 851 hPa | 0 mm | - | 0 W/m² | - |
| 1787619325 | 13.89° C | 89% | 850.8 hPa | 0 mm | - | 0 W/m² | - |
| 1787618497 | 13.89° C | 89% | 850.6 hPa | 0 mm | - | 0 W/m² | - |
| 1787618125 | 13.89° C | 88% | 851.2 hPa | 0 mm | - | 0 W/m² | - |
| 1787617525 | 14.44° C | 85% | 851.3 hPa | 0 mm | - | 0 W/m² | - |
| 1787616698 | 15° C | 82% | 851.3 hPa | 0 mm | - | 0 W/m² | - |
| 1787616325 | 14.44° C | 84% | 851.4 hPa | 0 mm | - | 0 W/m² | - |
| 1787615725 | 14.44° C | 88% | 851.5 hPa | 0 mm | - | 0 W/m² | - |
| 1787614897 | 15° C | 86% | 851.8 hPa | 0 mm | - | 0 W/m² | - |
| 1787614525 | 15° C | 87% | 851.9 hPa | 0 mm | - | 0 W/m² | - |
| 1787613925 | 15° C | 88% | 852.3 hPa | 0 mm | - | 0 W/m² | - |
| 1787613325 | 15° C | 88% | 852.5 hPa | 0 mm | - | 0 W/m² | - |
| 1787612724 | 15.56° C | 86% | 852.8 hPa | 0 mm | - | 0 W/m² | - |
| 1787612125 | 15.56° C | 85% | 852.9 hPa | 0 mm | - | 0 W/m² | - |
| 1787611298 | 15° C | 88% | 852.9 hPa | 0 mm | - | 0 W/m² | - |
| 1787610924 | 15.56° C | 87% | 853.4 hPa | 0 mm | - | 0 W/m² | - |
* Rain latest hour (hover to see other rain measurements)
** Current wind speed in m/s (hover to see current wind gust speed)